Voltar ao catálogo

SHIYAN 20B

SY-20B

AtivoCiênciaLEO
NORAD 54700·PAYLOAD·🇨🇳 China

Lançado Dec 12, 2022 de Jiuquan Satellite Launch Center

Loading…

Próximas Passagens (próximas 24 horas)

TLE

AtualizadoSource: Space-Track

Época: Sep 14, 2026, 14:55 UTC

1 54700U 22169B   26257.62203469 -.00000012  00000-0  48623-4 0  9991
2 54700  59.9968 304.9362 0011136 339.0978  20.9601 14.29564369196140

Acompanhe SHIYAN 20B em tempo real com AllMySat

Download on the App Store